Location: Columbia
(38.9520°N, 92.3340°W)
Time: 08:22:39
(UTC-05:00)

CZ-2C R/B - Visible Passes

Search period start: 28 June 2016 00:00
Search period end: 08 July 2016 00:00
Orbit: 704 x 908 km, 98.2° (Epoch: 28 June)

Date Brightness Start Highest point End Pass type
(mag) Time Alt. Az. Time Alt. Az. Time Alt. Az.
28 Jun 5.3 00:21:36 14° E 00:23:39 17° ENE 00:27:11 10° NNE visible
28 Jun 3.2 02:02:40 69° WSW 02:02:54 70° WSW 02:08:34 10° NNW visible
28 Jun 5.7 23:58:40 10° ENE 23:59:17 10° ENE 23:59:55 10° NE visible
29 Jun 3.3 01:37:41 68° ESE 01:38:12 73° ENE 01:43:49 10° N visible
29 Jun 5.1 03:18:45 15° W 03:18:45 15° W 03:21:33 10° WNW visible
30 Jun 4.0 01:12:41 42° E 01:13:34 45° ENE 01:18:53 10° N visible
30 Jun 4.6 02:53:46 25° W 02:53:46 25° W 02:58:04 10° NW visible
01 Jul 4.7 00:47:42 25° E 00:49:01 28° ENE 00:53:40 10° N visible
01 Jul 3.9 02:28:47 40° W 02:28:47 40° W 02:33:55 10° NNW visible
02 Jul 5.2 00:22:43 15° E 00:24:33 17° ENE 00:28:05 10° NNE visible
02 Jul 3.2 02:03:48 67° WSW 02:03:52 67° WSW 02:09:25 10° NNW visible
02 Jul 5.7 23:59:22 10° ENE 00:00:10 10° ENE 00:00:59 10° NE visible
03 Jul 3.2 01:38:49 73° ESE 01:39:09 76° ENE 01:44:41 10° N visible
03 Jul 5.2 03:19:53 14° W 03:19:53 14° W 03:22:12 10° WNW visible
04 Jul 3.9 01:13:50 44° E 01:14:30 46° ENE 01:19:44 10° N visible
04 Jul 4.6 02:54:54 23° W 02:54:54 23° W 02:58:50 10° NW visible
05 Jul 4.6 00:48:51 27° E 00:49:56 28° ENE 00:54:33 10° N visible
05 Jul 4.0 02:29:56 38° W 02:29:56 38° W 02:34:43 10° NNW visible
06 Jul 5.2 00:23:53 16° E 00:25:27 18° ENE 00:28:57 10° NNE visible
06 Jul 3.3 02:04:57 64° W 02:04:57 64° W 02:10:15 10° NNW visible
07 Jul 5.6 00:00:10 10° ENE 00:01:03 10° ENE 00:01:56 10° NE visible
07 Jul 3.2 01:39:59 78° E 01:40:04 78° ENE 01:45:31 10° N visible
07 Jul 5.2 03:21:03 13° W 03:21:03 13° W 03:22:47 10° WNW visible
